Time,TemperatureF,DewpointF,PressureIn,WindDirection,WindDirectionDegrees,WindSpeedMPH,WindSpeedGustMPH,Humidity,HourlyPrecipIn,Conditions,Clouds,dailyrainin,SoftwareType,DateUTC
2013-03-26 00:00:00,58.0,-99.9,30.35,NNE,27,16.0,18.0,-999,-99.99,,,-99.99,,2013-03-26 05:00:00,
2013-03-26 00:32:00,58.0,-99.9,30.35,NNE,27,16.0,18.0,-999,-99.99,,,-99.99,,2013-03-26 05:32:00,
2013-03-26 00:43:00,58.0,-99.9,30.35,NNE,27,16.0,18.0,-999,-99.99,,,-99.99,,2013-03-26 05:43:00,
2013-03-26 00:52:00,58.0,-99.9,30.35,NNE,27,16.0,18.0,-999,-99.99,,,-99.99,,2013-03-26 05:52:00,
2013-03-26 01:00:00,56.0,-99.9,30.36,NNE,28,20.0,23.0,-999,-99.99,,,-99.99,,2013-03-26 06:00:00,
2013-03-26 01:32:00,56.0,-99.9,30.36,NNE,28,20.0,23.0,-999,-99.99,,,-99.99,,2013-03-26 06:32:00,
2013-03-26 01:43:00,56.0,-99.9,30.36,NNE,28,20.0,23.0,-999,-99.99,,,-99.99,,2013-03-26 06:43:00,
2013-03-26 01:53:00,56.0,-99.9,30.36,NNE,28,20.0,23.0,-999,-99.99,,,-99.99,,2013-03-26 06:53:00,
2013-03-26 02:00:00,55.0,-99.9,30.36,NE,43,23.0,28.0,-999,-99.99,,,-99.99,,2013-03-26 07:00:00,
2013-03-26 02:33:00,55.0,-99.9,30.36,NE,43,23.0,28.0,-999,-99.99,,,-99.99,,2013-03-26 07:33:00,
2013-03-26 02:43:00,55.0,-99.9,30.36,NE,43,23.0,28.0,-999,-99.99,,,-99.99,,2013-03-26 07:43:00,
2013-03-26 02:53:00,55.0,-99.9,30.36,NE,43,23.0,28.0,-999,-99.99,,,-99.99,,2013-03-26 07:53:00,
2013-03-26 04:00:00,54.0,-99.9,30.35,NE,43,25.0,28.0,-999,-99.99,,,-99.99,,2013-03-26 09:00:00,
2013-03-26 04:33:00,54.0,-99.9,30.35,NE,43,25.0,28.0,-999,-99.99,,,-99.99,,2013-03-26 09:33:00,
2013-03-26 04:43:00,54.0,-99.9,30.35,NE,43,25.0,28.0,-999,-99.99,,,-99.99,,2013-03-26 09:43:00,
2013-03-26 04:52:00,54.0,-99.9,30.35,NE,43,25.0,28.0,-999,-99.99,,,-99.99,,2013-03-26 09:52:00,
2013-03-26 05:00:00,53.0,-99.9,30.36,NE,50,23.0,27.0,-999,-99.99,,,-99.99,,2013-03-26 10:00:00,
2013-03-26 05:33:00,53.0,-99.9,30.36,NE,50,23.0,27.0,-999,-99.99,,,-99.99,,2013-03-26 10:33:00,
2013-03-26 05:43:00,53.0,-99.9,30.36,NE,50,23.0,27.0,-999,-99.99,,,-99.99,,2013-03-26 10:43:00,
2013-03-26 05:53:00,53.0,-99.9,30.36,NE,50,23.0,27.0,-999,-99.99,,,-99.99,,2013-03-26 10:53:00,
2013-03-26 06:00:00,52.0,-99.9,30.37,NE,54,23.0,26.0,-999,-99.99,,,-99.99,,2013-03-26 11:00:00,
2013-03-26 06:33:00,52.0,-99.9,30.37,NE,54,23.0,26.0,-999,-99.99,,,-99.99,,2013-03-26 11:33:00,
2013-03-26 06:43:00,52.0,-99.9,30.37,NE,54,23.0,26.0,-999,-99.99,,,-99.99,,2013-03-26 11:43:00,
2013-03-26 06:53:00,52.0,-99.9,30.37,NE,54,23.0,26.0,-999,-99.99,,,-99.99,,2013-03-26 11:53:00,
2013-03-26 07:00:00,52.0,-99.9,30.39,ENE,62,20.0,24.0,-999,-99.99,,,-99.99,,2013-03-26 12:00:00,
2013-03-26 07:22:00,52.0,-99.9,30.39,ENE,62,20.0,24.0,-999,-99.99,,,-99.99,,2013-03-26 12:22:00,
2013-03-26 07:32:00,52.0,-99.9,30.39,ENE,62,20.0,24.0,-999,-99.99,,,-99.99,,2013-03-26 12:32:00,
2013-03-26 07:43:00,52.0,-99.9,30.39,ENE,62,20.0,24.0,-999,-99.99,,,-99.99,,2013-03-26 12:43:00,
2013-03-26 07:52:00,52.0,-99.9,30.39,ENE,62,20.0,24.0,-999,-99.99,,,-99.99,,2013-03-26 12:52:00,
2013-03-26 08:00:00,51.0,-99.9,30.42,NE,50,22.0,25.0,-999,-99.99,,,-99.99,,2013-03-26 13:00:00,
2013-03-26 08:32:00,51.0,-99.9,30.42,NE,50,22.0,25.0,-999,-99.99,,,-99.99,,2013-03-26 13:32:00,
2013-03-26 08:42:00,51.0,-99.9,30.42,NE,50,22.0,25.0,-999,-99.99,,,-99.99,,2013-03-26 13:42:00,
2013-03-26 08:52:00,51.0,-99.9,30.42,NE,50,22.0,25.0,-999,-99.99,,,-99.99,,2013-03-26 13:52:00,
2013-03-26 09:00:00,52.0,-99.9,30.45,NE,55,21.0,26.0,-999,-99.99,,,-99.99,,2013-03-26 14:00:00,
2013-03-26 09:33:00,52.0,-99.9,30.45,NE,55,21.0,26.0,-999,-99.99,,,-99.99,,2013-03-26 14:33:00,
2013-03-26 09:42:00,52.0,-99.9,30.45,NE,55,21.0,26.0,-999,-99.99,,,-99.99,,2013-03-26 14:42:00,
2013-03-26 09:53:00,52.0,-99.9,30.45,NE,55,21.0,26.0,-999,-99.99,,,-99.99,,2013-03-26 14:53:00,
2013-03-26 10:00:00,52.0,-99.9,30.46,ENE,58,19.0,20.0,-999,-99.99,,,-99.99,,2013-03-26 15:00:00,
2013-03-26 10:33:00,52.0,-99.9,30.46,ENE,58,19.0,20.0,-999,-99.99,,,-99.99,,2013-03-26 15:33:00,
2013-03-26 10:43:00,52.0,-99.9,30.46,ENE,58,19.0,20.0,-999,-99.99,,,-99.99,,2013-03-26 15:43:00,
2013-03-26 10:53:00,52.0,-99.9,30.46,ENE,58,19.0,20.0,-999,-99.99,,,-99.99,,2013-03-26 15:53:00,
2013-03-26 11:00:00,54.0,-99.9,30.47,ENE,65,13.0,15.0,-999,-99.99,,,-99.99,,2013-03-26 16:00:00,
2013-03-26 11:33:00,54.0,-99.9,30.47,ENE,65,13.0,15.0,-999,-99.99,,,-99.99,,2013-03-26 16:33:00,
2013-03-26 11:43:00,54.0,-99.9,30.47,ENE,65,13.0,15.0,-999,-99.99,,,-99.99,,2013-03-26 16:43:00,
2013-03-26 11:54:00,54.0,-99.9,30.47,ENE,65,13.0,15.0,-999,-99.99,,,-99.99,,2013-03-26 16:54:00,
2013-03-26 12:00:00,54.0,-99.9,30.46,ENE,65,12.0,14.0,-999,-99.99,,,-99.99,,2013-03-26 17:00:00,
2013-03-26 12:33:00,54.0,-99.9,30.46,ENE,65,12.0,14.0,-999,-99.99,,,-99.99,,2013-03-26 17:33:00,
2013-03-26 12:42:00,54.0,-99.9,30.46,ENE,65,12.0,14.0,-999,-99.99,,,-99.99,,2013-03-26 17:42:00,
2013-03-26 12:53:00,54.0,-99.9,30.46,ENE,65,12.0,14.0,-999,-99.99,,,-99.99,,2013-03-26 17:53:00,
2013-03-26 13:00:00,55.0,-99.9,30.44,ENE,76,9.0,11.0,-999,-99.99,,,-99.99,,2013-03-26 18:00:00,
2013-03-26 13:34:00,55.0,-99.9,30.44,ENE,76,9.0,11.0,-999,-99.99,,,-99.99,,2013-03-26 18:34:00,
2013-03-26 13:42:00,55.0,-99.9,30.44,ENE,76,9.0,11.0,-999,-99.99,,,-99.99,,2013-03-26 18:42:00,
2013-03-26 13:53:00,55.0,-99.9,30.44,ENE,76,9.0,11.0,-999,-99.99,,,-99.99,,2013-03-26 18:53:00,
2013-03-26 14:00:00,56.0,-99.9,30.42,East,89,7.0,9.0,-999,-99.99,,,-99.99,,2013-03-26 19:00:00,
2013-03-26 14:42:00,56.0,-99.9,30.42,East,89,7.0,9.0,-999,-99.99,,,-99.99,,2013-03-26 19:42:00,
2013-03-26 14:53:00,56.0,-99.9,30.42,East,89,7.0,9.0,-999,-99.99,,,-99.99,,2013-03-26 19:53:00,
2013-03-26 15:00:00,58.0,-99.9,30.38,SE,126,6.0,9.0,-999,-99.99,,,-99.99,,2013-03-26 20:00:00,
2013-03-26 15:33:00,58.0,-99.9,30.38,SE,126,6.0,9.0,-999,-99.99,,,-99.99,,2013-03-26 20:33:00,
2013-03-26 15:43:00,58.0,-99.9,30.38,SE,126,6.0,9.0,-999,-99.99,,,-99.99,,2013-03-26 20:43:00,
2013-03-26 15:53:00,58.0,-99.9,30.38,SE,126,6.0,9.0,-999,-99.99,,,-99.99,,2013-03-26 20:53:00,
2013-03-26 16:00:00,58.0,-99.9,30.35,ESE,111,7.0,11.0,-999,-99.99,,,-99.99,,2013-03-26 21:00:00,
2013-03-26 16:33:00,58.0,-99.9,30.35,ESE,111,7.0,11.0,-999,-99.99,,,-99.99,,2013-03-26 21:33:00,
2013-03-26 16:43:00,58.0,-99.9,30.35,ESE,111,7.0,11.0,-999,-99.99,,,-99.99,,2013-03-26 21:43:00,
2013-03-26 16:53:00,58.0,-99.9,30.35,ESE,111,7.0,11.0,-999,-99.99,,,-99.99,,2013-03-26 21:53:00,
2013-03-26 17:00:00,58.0,-99.9,30.33,SE,129,11.0,14.0,-999,-99.99,,,-99.99,,2013-03-26 22:00:00,
2013-03-26 17:33:00,58.0,-99.9,30.33,SE,129,11.0,14.0,-999,-99.99,,,-99.99,,2013-03-26 22:33:00,
2013-03-26 17:43:00,58.0,-99.9,30.33,SE,129,11.0,14.0,-999,-99.99,,,-99.99,,2013-03-26 22:43:00,
2013-03-26 17:53:00,58.0,-99.9,30.33,SE,129,11.0,14.0,-999,-99.99,,,-99.99,,2013-03-26 22:53:00,
2013-03-26 18:00:00,58.0,-99.9,30.32,SE,138,10.0,12.0,-999,-99.99,,,-99.99,,2013-03-26 23:00:00,
2013-03-26 18:33:00,58.0,-99.9,30.32,SE,138,10.0,12.0,-999,-99.99,,,-99.99,,2013-03-26 23:33:00,
2013-03-26 18:43:00,58.0,-99.9,30.32,SE,138,10.0,12.0,-999,-99.99,,,-99.99,,2013-03-26 23:43:00,
2013-03-26 18:53:00,58.0,-99.9,30.32,SE,138,10.0,12.0,-999,-99.99,,,-99.99,,2013-03-26 23:53:00,
2013-03-26 19:00:00,58.0,-99.9,30.32,SE,128,10.0,12.0,-999,-99.99,,,-99.99,,2013-03-27 00:00:00,
2013-03-26 19:33:00,58.0,-99.9,30.32,SE,128,10.0,12.0,-999,-99.99,,,-99.99,,2013-03-27 00:33:00,
2013-03-26 19:43:00,58.0,-99.9,30.32,SE,128,10.0,12.0,-999,-99.99,,,-99.99,,2013-03-27 00:43:00,
2013-03-26 19:52:00,58.0,-99.9,30.32,SE,128,10.0,12.0,-999,-99.99,,,-99.99,,2013-03-27 00:52:00,
2013-03-26 20:00:00,57.0,-99.9,30.33,SSE,148,13.0,14.0,-999,-99.99,,,-99.99,,2013-03-27 01:00:00,
2013-03-26 20:33:00,57.0,-99.9,30.33,SSE,148,13.0,14.0,-999,-99.99,,,-99.99,,2013-03-27 01:33:00,
2013-03-26 20:43:00,57.0,-99.9,30.33,SSE,148,13.0,14.0,-999,-99.99,,,-99.99,,2013-03-27 01:43:00,
2013-03-26 20:53:00,57.0,-99.9,30.33,SSE,148,13.0,14.0,-999,-99.99,,,-99.99,,2013-03-27 01:53:00,
2013-03-26 21:00:00,57.0,-99.9,30.34,SSE,147,13.0,15.0,-999,-99.99,,,-99.99,,2013-03-27 02:00:00,
2013-03-26 21:32:00,57.0,-99.9,30.34,SSE,147,13.0,15.0,-999,-99.99,,,-99.99,,2013-03-27 02:32:00,
2013-03-26 21:43:00,57.0,-99.9,30.34,SSE,147,13.0,15.0,-999,-99.99,,,-99.99,,2013-03-27 02:43:00,
2013-03-26 21:53:00,57.0,-99.9,30.34,SSE,147,13.0,15.0,-999,-99.99,,,-99.99,,2013-03-27 02:53:00,
2013-03-26 22:00:00,57.0,-99.9,30.34,SSE,147,12.0,17.0,-999,-99.99,,,-99.99,,2013-03-27 03:00:00,
2013-03-26 22:33:00,57.0,-99.9,30.34,SSE,147,12.0,17.0,-999,-99.99,,,-99.99,,2013-03-27 03:33:00,
2013-03-26 22:43:00,57.0,-99.9,30.34,SSE,147,12.0,17.0,-999,-99.99,,,-99.99,,2013-03-27 03:43:00,
2013-03-26 22:53:00,57.0,-99.9,30.34,SSE,147,12.0,17.0,-999,-99.99,,,-99.99,,2013-03-27 03:53:00,
2013-03-26 23:00:00,58.0,-99.9,30.36,SSE,153,13.0,14.0,-999,-99.99,,,-99.99,,2013-03-27 04:00:00,
2013-03-26 23:33:00,58.0,-99.9,30.36,SSE,153,13.0,14.0,-999,-99.99,,,-99.99,,2013-03-27 04:33:00,
2013-03-26 23:43:00,58.0,-99.9,30.36,SSE,153,13.0,14.0,-999,-99.99,,,-99.99,,2013-03-27 04:43:00,
2013-03-26 23:53:00,58.0,-99.9,30.36,SSE,153,13.0,14.0,-999,-99.99,,,-99.99,,2013-03-27 04:53:00,